,,Stat6,,Stat2,,Stat8,,Stat9,,Stat10,,Wind1,,Wind1,
time,status,PA1M_AVG,status,PR1M_SUM,status,RH1M_AVG,status,SR1M_AVG,status,TA1M_AVG,status,W1dAve1m,status,W1sAve1m,
2007-06-01, 00:00:00,VALID,918.57,VALID,0,VALID,100,VALID,0,VALID,21.2765,VALID,193,VALID,0.0785156,
2007-06-01, 00:01:00,VALID,918.563,VALID,0,VALID,100,VALID,0,VALID,21.2901,VALID,193,VALID,0,
2007-06-01, 00:02:00,VALID,918.562,VALID,0,VALID,100,VALID,0,VALID,21.296,VALID,193,VALID,0,
2007-06-01, 00:03:00,VALID,918.544,VALID,0,VALID,100,VALID,0.0169808,VALID,21.2928,VALID,193,VALID,0,
2007-06-01, 00:04:00,VALID,918.536,VALID,0,VALID,100,VALID,-0.0169808,VALID,21.2968,VALID,193,VALID,0,
2007-06-01, 00:05:00,VALID,918.508,VALID,0,VALID,100,VALID,0.0169808,VALID,21.2968,VALID,193,VALID,0,
2007-06-01, 00:06:00,VALID,918.489,VALID,0,VALID,100,VALID,0.0169808,VALID,21.2868,VALID,193,VALID,0.00436047,
2007-06-01, 00:07:00,VALID,918.478,VALID,0,VALID,100,VALID,-0.0169808,VALID,21.2898,VALID,193,VALID,0.135861,
2007-06-01, 00:08:00,VALID,918.471,VALID,0,VALID,100,VALID,0.0169808,VALID,21.2995,VALID,193,VALID,0.285342,
2007-06-01, 00:09:00,VALID,918.465,VALID,0,VALID,100,VALID,0,VALID,21.2928,VALID,193,VALID,0.179869,
2007-06-01, 00:10:00,VALID,918.456,VALID,0,VALID,100,VALID,0.0339617,VALID,21.3025,VALID,193,VALID,0.0567835,
2007-06-01, 00:11:00,VALID,918.454,VALID,0,VALID,100,VALID,0,VALID,21.2895,VALID,193,VALID,0,
2007-06-01, 00:12:00,VALID,918.44,VALID,0,VALID,100,VALID,0.0169808,VALID,21.296,VALID,193,VALID,0,
2007-06-01, 00:13:00,VALID,918.445,VALID,0,VALID,100,VALID,0.0169808,VALID,21.2898,VALID,193,VALID,0,
2007-06-01, 00:14:00,VALID,918.429,VALID,0,VALID,100,VALID,-0.0339617,VALID,21.2938,VALID,193,VALID,0.00106534,
2007-06-01, 00:15:00,VALID,918.417,VALID,0,VALID,100,VALID,-0.0849042,VALID,21.2979,VALID,193,VALID,0.306362,
2007-06-01, 00:16:00,VALID,918.405,VALID,0,VALID,100,VALID,-0.101885,VALID,21.3009,VALID,193,VALID,0.352515,
2007-06-01, 00:17:00,VALID,918.363,VALID,0,VALID,100,VALID,-0.0339617,VALID,21.2838,VALID,193,VALID,0.359003,
2007-06-01, 00:18:00,VALID,918.354,VALID,0,VALID,100,VALID,-0.0679233,VALID,21.2811,VALID,193,VALID,0.107813,
2007-06-01, 00:19:00,VALID,918.339,VALID,0,VALID,100,VALID,-0.0849042,VALID,21.2782,VALID,193,VALID,0,
2007-06-01, 00:20:00,VALID,918.334,VALID,0,VALID,100,VALID,-0.0509425,VALID,21.2681,VALID,193,VALID,0,
2007-06-01, 00:21:00,VALID,918.331,VALID,0,VALID,100,VALID,-0.0849042,VALID,21.2684,VALID,193,VALID,0,
2007-06-01, 00:22:00,VALID,918.337,VALID,0,VALID,100,VALID,-0.0849042,VALID,21.2519,VALID,193,VALID,0,
2007-06-01, 00:23:00,VALID,918.338,VALID,0,VALID,100,VALID,-0.0849042,VALID,21.2554,VALID,193,VALID,0,
2007-06-01, 00:24:00,VALID,918.344,VALID,0,VALID,100,VALID,-0.0339617,VALID,21.2489,VALID,193,VALID,0,
2007-06-01, 00:25:00,VALID,918.345,VALID,0,VALID,100,VALID,-0.0849042,VALID,21.2454,VALID,193,VALID,0,
2007-06-01, 00:26:00,VALID,918.343,VALID,0,VALID,100,VALID,-0.0849042,VALID,21.2522,VALID,193,VALID,0,
2007-06-01, 00:27:00,VALID,918.352,VALID,0,VALID,100,VALID,-0.0849042,VALID,21.2522,VALID,193,VALID,0,
2007-06-01, 00:28:00,VALID,918.368,VALID,0,VALID,100,VALID,-0.0849042,VALID,21.2522,VALID,192,VALID,0.345749,
2007-06-01, 00:29:00,VALID,918.373,VALID,0,VALID,100,VALID,-0.0339617,VALID,21.2541,VALID,192,VALID,0.390795,
2007-06-01, 00:30:00,VALID,918.369,VALID,0,VALID,100,VALID,0.0509425,VALID,21.2465,VALID,192,VALID,0.396577,
2007-06-01, 00:31:00,VALID,918.371,VALID,0,VALID,100,VALID,0.0339617,VALID,21.2473,VALID,300,VALID,0.510069,
2007-06-01, 00:32:00,VALID,918.36,VALID,0,VALID,100,VALID,0.0339617,VALID,21.2408,VALID,341,VALID,0.425959,
2007-06-01, 00:33:00,VALID,918.338,VALID,0,VALID,100,VALID,0,VALID,21.2408,VALID,341,VALID,0.25558,
2007-06-01, 00:34:00,VALID,918.333,VALID,0,VALID,100,VALID,0.0339617,VALID,21.2408,VALID,341,VALID,0.0357143,
2007-06-01, 00:35:00,VALID,918.33,VALID,0,VALID,100,VALID,0,VALID,21.2343,VALID,341,VALID,0,
2007-06-01, 00:36:00,VALID,918.315,VALID,0,VALID,100,VALID,0.0679233,VALID,21.2343,VALID,341,VALID,0,
2007-06-01, 00:37:00,VALID,918.317,VALID,0,VALID,100,VALID,0,VALID,21.2376,VALID,341,VALID,0.178779,
2007-06-01, 00:38:00,VALID,918.309,VALID,0,VALID,100,VALID,0,VALID,21.2379,VALID,341,VALID,0.310454,
2007-06-01, 00:39:00,VALID,918.31,VALID,0,VALID,100,VALID,0.0339617,VALID,21.2443,VALID,357,VALID,0.504934,
2007-06-01, 00:40:00,VALID,918.291,VALID,0,VALID,100,VALID,0,VALID,21.2246,VALID,20,VALID,0.571801,
2007-06-01, 00:41:00,VALID,918.286,VALID,0,VALID,100,VALID,0.0509425,VALID,21.1954,VALID,30,VALID,0.287642,
2007-06-01, 00:42:00,VALID,918.262,VALID,0,VALID,100,VALID,0.0169808,VALID,21.1662,VALID,30,VALID,0.00585938,
2007-06-01, 00:43:00,VALID,918.239,VALID,0,VALID,100,VALID,0.0169808,VALID,21.137,VALID,30,VALID,0,
2007-06-01, 00:44:00,VALID,918.216,VALID,0,VALID,100,VALID,0,VALID,21.1205,VALID,30,VALID,0,
2007-06-01, 00:45:00,VALID,918.191,VALID,0,VALID,100,VALID,-0.0169808,VALID,21.1242,VALID,30,VALID,0.0727307,
2007-06-01, 00:46:00,VALID,918.169,VALID,0,VALID,100,VALID,0,VALID,21.1402,VALID,30,VALID,0.136628,
2007-06-01, 00:47:00,VALID,918.144,VALID,0,VALID,100,VALID,0.0509425,VALID,21.1334,VALID,30,VALID,0.00381541,
2007-06-01, 00:48:00,VALID,918.122,VALID,0,VALID,100,VALID,0,VALID,21.124,VALID,30,VALID,0.0770349,
2007-06-01, 00:49:00,VALID,918.11,VALID,0,VALID,100,VALID,-0.0169808,VALID,21.1242,VALID,30,VALID,0.520349,
2007-06-01, 00:50:00,VALID,918.103,VALID,0,VALID,100,VALID,0,VALID,21.1007,VALID,30,VALID,0.358398,
2007-06-01, 00:51:00,VALID,918.086,VALID,0,VALID,100,VALID,0.0339617,VALID,21.1013,VALID,30,VALID,0.265816,
2007-06-01, 00:52:00,VALID,918.067,VALID,0,VALID,100,VALID,0.0169808,VALID,21.0685,VALID,30,VALID,0.168636,
2007-06-01, 00:53:00,VALID,918.059,VALID,0,VALID,100,VALID,0,VALID,21.0688,VALID,30,VALID,0.34566,
2007-06-01, 00:54:00,VALID,918.048,VALID,0,VALID,100,VALID,0.0169808,VALID,21.0756,VALID,30,VALID,0.556974,
2007-06-01, 00:55:00,VALID,918.047,VALID,0,VALID,100,VALID,0,VALID,21.0655,VALID,26,VALID,0.900073,
2007-06-01, 00:56:00,VALID,918.031,VALID,0,VALID,100,VALID,0,VALID,21.0623,VALID,14,VALID,0.711119,
2007-06-01, 00:57:00,VALID,918.018,VALID,0,VALID,100,VALID,0.0169808,VALID,21.0785,VALID,30,VALID,0.888148,
2007-06-01, 00:58:00,VALID,918.004,VALID,0,VALID,100,VALID,0,VALID,21.0815,VALID,24,VALID,0.778161,
2007-06-01, 00:59:00,VALID,917.982,VALID,0,VALID,100,VALID,-0.0339617,VALID,21.1218,VALID,41,VALID,0.568407,
2007-06-01, 01:00:00,VALID,917.966,VALID,0,VALID,100,VALID,-0.0849042,VALID,21.1513,VALID,41,VALID,0.696243,
2007-06-01, 01:01:00,VALID,917.945,VALID,0,VALID,100,VALID,-0.0339617,VALID,21.1483,VALID,24,VALID,0.827217,
2007-06-01, 01:02:00,VALID,917.936,VALID,0,VALID,100,VALID,-0.0339617,VALID,21.1191,VALID,14,VALID,0.610709,
2007-06-01, 01:03:00,VALID,917.917,VALID,0,VALID,100,VALID,-0.0849042,VALID,21.0866,VALID,34,VALID,0.628472,
2007-06-01, 01:04:00,VALID,917.916,VALID,0,VALID,100,VALID,-0.0849042,VALID,21.0869,VALID,31,VALID,0.54581,
2007-06-01, 01:05:00,VALID,917.912,VALID,0,VALID,100,VALID,-0.0679233,VALID,21.0834,VALID,25,VALID,0.921693,
2007-06-01, 01:06:00,VALID,917.895,VALID,0,VALID,100,VALID,-0.0509425,VALID,21.0831,VALID,30,VALID,1.26653,
2007-06-01, 01:07:00,VALID,917.898,VALID,0,VALID,100,VALID,-0.0679233,VALID,21.1029,VALID,40,VALID,0.528054,
2007-06-01, 01:08:00,VALID,917.882,VALID,0,VALID,100,VALID,-0.101885,VALID,21.1258,VALID,22,VALID,0.182594,
2007-06-01, 01:09:00,VALID,917.881,VALID,0,VALID,100,VALID,-0.101885,VALID,21.1321,VALID,22,VALID,0,
2007-06-01, 01:10:00,VALID,917.867,VALID,0,VALID,100,VALID,-0.118866,VALID,21.1488,VALID,22,VALID,0.32252,
2007-06-01, 01:11:00,VALID,917.871,VALID,0,VALID,100,VALID,-0.101885,VALID,21.1388,VALID,7,VALID,0.5712,
2007-06-01, 01:12:00,VALID,917.854,VALID,0,VALID,100,VALID,-0.0849042,VALID,21.1093,VALID,355,VALID,0.124306,
2007-06-01, 01:13:00,VALID,917.847,VALID,0,VALID,100,VALID,-0.101885,VALID,21.1288,VALID,355,VALID,0.0152616,
2007-06-01, 01:14:00,VALID,917.812,VALID,0,VALID,100,VALID,-0.0849042,VALID,21.1451,VALID,11,VALID,0.425,
2007-06-01, 01:15:00,VALID,917.797,VALID,0,VALID,100,VALID,-0.0849042,VALID,21.1483,VALID,37,VALID,0.749818,
2007-06-01, 01:16:00,VALID,917.785,VALID,0,VALID,100,VALID,-0.101885,VALID,21.1548,VALID,29,VALID,0.911644,
2007-06-01, 01:17:00,VALID,917.779,VALID,0,VALID,100,VALID,-0.101885,VALID,21.1288,VALID,28,VALID,0.789418,
2007-06-01, 01:18:00,VALID,917.765,VALID,0,VALID,100,VALID,-0.0849042,VALID,21.1256,VALID,36,VALID,1.19457,
2007-06-01, 01:19:00,VALID,917.768,VALID,0,VALID,100,VALID,-0.101885,VALID,21.1323,VALID,46,VALID,0.874467,
2007-06-01, 01:20:00,VALID,917.762,VALID,0,VALID,100,VALID,-0.101885,VALID,21.1283,VALID,36,VALID,1.28639,
2007-06-01, 01:21:00,VALID,917.773,VALID,0,VALID,100,VALID,-0.0849042,VALID,21.1548,VALID,34,VALID,0.927379,
2007-06-01, 01:22:00,VALID,917.759,VALID,0,VALID,100,VALID,-0.0679233,VALID,21.1775,VALID,38,VALID,0.834896,
2007-06-01, 01:23:00,VALID,917.765,VALID,0,VALID,100,VALID,-0.101885,VALID,21.2005,VALID,42,VALID,0.403646,
2007-06-01, 01:24:00,VALID,917.748,VALID,0,VALID,100,VALID,-0.101885,VALID,21.2035,VALID,5,VALID,0.50744,
2007-06-01, 01:25:00,VALID,917.742,VALID,0,VALID,100,VALID,-0.118866,VALID,21.184,VALID,351,VALID,0.501524,
2007-06-01, 01:26:00,VALID,917.729,VALID,0,VALID,100,VALID,-0.0849042,VALID,21.1778,VALID,351,VALID,0.197493,
2007-06-01, 01:27:00,VALID,917.712,VALID,0,VALID,100,VALID,-0.101885,VALID,21.1875,VALID,351,VALID,0.323583,
2007-06-01, 01:28:00,VALID,917.701,VALID,0,VALID,100,VALID,-0.0679233,VALID,21.2,VALID,359,VALID,0.289931,
2007-06-01, 01:29:00,VALID,917.689,VALID,0,VALID,100,VALID,-0.0169808,VALID,21.2086,VALID,25,VALID,0.612926,
2007-06-01, 01:30:00,VALID,917.684,VALID,0,VALID,100,VALID,0,VALID,21.2149,VALID,44,VALID,0.776172,
2007-06-01, 01:31:00,VALID,917.681,VALID,0,VALID,100,VALID,-0.0169808,VALID,21.2181,VALID,43,VALID,0.614462,
2007-06-01, 01:32:00,VALID,917.665,VALID,0,VALID,100,VALID,0,VALID,21.2278,VALID,43,VALID,0.401786,
2007-06-01, 01:33:00,VALID,917.634,VALID,0,VALID,100,VALID,0.0169808,VALID,21.2281,VALID,42,VALID,0.60423,
2007-06-01, 01:34:00,VALID,917.634,VALID,0,VALID,100,VALID,0.0339617,VALID,21.2216,VALID,42,VALID,0.304688,
2007-06-01, 01:35:00,VALID,917.623,VALID,0,VALID,100,VALID,0.0339617,VALID,21.2406,VALID,42,VALID,0.154883,
2007-06-01, 01:36:00,VALID,917.63,VALID,0,VALID,100,VALID,0,VALID,21.2411,VALID,42,VALID,0.00297619,
2007-06-01, 01:37:00,VALID,917.611,VALID,0,VALID,100,VALID,0.0169808,VALID,21.2276,VALID,354,VALID,0.127668,
2007-06-01, 01:38:00,VALID,917.602,VALID,0,VALID,100,VALID,0,VALID,21.2181,VALID,313,VALID,0,
2007-06-01, 01:39:00,VALID,917.586,VALID,0,VALID,100,VALID,0.0169808,VALID,21.2181,VALID,322,VALID,0.178943,
2007-06-01, 01:40:00,VALID,917.57,VALID,0,VALID,100,VALID,0,VALID,21.2178,VALID,20,VALID,0.537574,
2007-06-01, 01:41:00,VALID,917.546,VALID,0,VALID,100,VALID,0.0169808,VALID,21.1954,VALID,7,VALID,0.910547,
2007-06-01, 01:42:00,VALID,917.53,VALID,0,VALID,100,VALID,0.0169808,VALID,21.1856,VALID,28,VALID,0.708031,
2007-06-01, 01:43:00,VALID,917.52,VALID,0,VALID,100,VALID,0,VALID,21.1986,VALID,24,VALID,0.452237,
2007-06-01, 01:44:00,VALID,917.503,VALID,0,VALID,100,VALID,-0.0339617,VALID,21.2227,VALID,26,VALID,0.682106,
2007-06-01, 01:45:00,VALID,917.485,VALID,0,VALID,100,VALID,-0.101885,VALID,21.2262,VALID,28,VALID,0.442406,
2007-06-01, 01:46:00,VALID,917.479,VALID,0,VALID,100,VALID,-0.101885,VALID,21.2162,VALID,36,VALID,0.637835,
2007-06-01, 01:47:00,VALID,917.475,VALID,0,VALID,100,VALID,-0.0849042,VALID,21.2332,VALID,37,VALID,0.27567,
2007-06-01, 01:48:00,VALID,917.469,VALID,0,VALID,100,VALID,-0.0339617,VALID,21.236,VALID,37,VALID,0,
2007-06-01, 01:49:00,VALID,917.472,VALID,0,VALID,100,VALID,-0.101885,VALID,21.2392,VALID,37,VALID,0,
2007-06-01, 01:50:00,VALID,917.465,VALID,0,VALID,100,VALID,-0.0849042,VALID,21.2327,VALID,37,VALID,0.307118,
2007-06-01, 01:51:00,VALID,917.474,VALID,0,VALID,100,VALID,-0.101885,VALID,21.2267,VALID,35,VALID,0.854802,
2007-06-01, 01:52:00,VALID,917.459,VALID,0,VALID,100,VALID,-0.101885,VALID,21.2362,VALID,40,VALID,0.981944,
2007-06-01, 01:53:00,VALID,917.452,VALID,0,VALID,100,VALID,-0.0849042,VALID,21.2197,VALID,30,VALID,1.08036,
2007-06-01, 01:54:00,VALID,917.449,VALID,0,VALID,100,VALID,-0.0849042,VALID,21.1905,VALID,15,VALID,0.579985,
2007-06-01, 01:55:00,VALID,917.442,VALID,0,VALID,100,VALID,-0.101885,VALID,21.1743,VALID,17,VALID,0.310404,
2007-06-01, 01:56:00,VALID,917.434,VALID,0,VALID,100,VALID,-0.118866,VALID,21.1675,VALID,20,VALID,0.0633878,
2007-06-01, 01:57:00,VALID,917.419,VALID,0,VALID,100,VALID,-0.135847,VALID,21.171,VALID,20,VALID,0.275781,
2007-06-01, 01:58:00,VALID,917.414,VALID,0,VALID,100,VALID,-0.0679233,VALID,21.1678,VALID,24,VALID,0.108103,
2007-06-01, 01:59:00,VALID,917.381,VALID,0,VALID,100,VALID,-0.0679233,VALID,21.1672,VALID,24,VALID,0.00334821,
2007-06-01, 02:00:00,VALID,917.358,VALID,0,VALID,100,VALID,-0.0169808,VALID,21.1632,VALID,29,VALID,0.710211,
2007-06-01, 02:01:00,VALID,917.332,VALID,0,VALID,100,VALID,-0.0169808,VALID,21.1632,VALID,36,VALID,1.25171,
2007-06-01, 02:02:00,VALID,917.301,VALID,0,VALID,100,VALID,0,VALID,21.1405,VALID,35,VALID,1.06357,
2007-06-01, 02:03:00,VALID,917.282,VALID,0,VALID,100,VALID,0,VALID,21.137,VALID,22,VALID,0.846007,
2007-06-01, 02:04:00,VALID,917.255,VALID,0,VALID,100,VALID,0,VALID,21.1405,VALID,10,VALID,0.109201,
2007-06-01, 02:05:00,VALID,917.252,VALID,0,VALID,100,VALID,-0.0169808,VALID,21.1307,VALID,10,VALID,0.110283,
2007-06-01, 02:06:00,VALID,917.246,VALID,0,VALID,100,VALID,0,VALID,21.1342,VALID,36,VALID,0.825521,
2007-06-01, 02:07:00,VALID,917.236,VALID,0,VALID,100,VALID,0,VALID,21.137,VALID,323,VALID,0.483648,
2007-06-01, 02:08:00,VALID,917.233,VALID,0,VALID,100,VALID,0,VALID,21.144,VALID,346,VALID,0.455788,
2007-06-01, 02:09:00,VALID,917.207,VALID,0,VALID,100,VALID,-0.0169808,VALID,21.1372,VALID,51,VALID,0.299851,
2007-06-01, 02:10:00,VALID,917.205,VALID,0,VALID,100,VALID,0,VALID,21.1272,VALID,51,VALID,0.15997,
2007-06-01, 02:11:00,VALID,917.182,VALID,0,VALID,100,VALID,-0.0169808,VALID,21.1543,VALID,51,VALID,0.0704985,
2007-06-01, 02:12:00,VALID,917.166,VALID,0,VALID,100,VALID,-0.0169808,VALID,21.1567,VALID,51,VALID,0,
2007-06-01, 02:13:00,VALID,917.157,VALID,0,VALID,100,VALID,-0.0169808,VALID,21.1599,VALID,51,VALID,0.0742188,
2007-06-01, 02:14:00,VALID,917.133,VALID,0,VALID,100,VALID,-0.0169808,VALID,21.1499,VALID,51,VALID,0.0135789,
2007-06-01, 02:15:00,VALID,917.13,VALID,0,VALID,100,VALID,0,VALID,21.1499,VALID,51,VALID,0,
2007-06-01, 02:16:00,VALID,917.116,VALID,0,VALID,100,VALID,-0.0339617,VALID,21.154,VALID,51,VALID,0,
2007-06-01, 02:17:00,VALID,917.096,VALID,0,VALID,100,VALID,0.0169808,VALID,21.1278,VALID,51,VALID,0,
2007-06-01, 02:18:00,VALID,917.089,VALID,0,VALID,100,VALID,0,VALID,21.1342,VALID,51,VALID,0.331577,
2007-06-01, 02:19:00,VALID,917.077,VALID,0,VALID,100,VALID,0.0169808,VALID,21.137,VALID,51,VALID,0.108073,
2007-06-01, 02:20:00,VALID,917.07,VALID,0,VALID,100,VALID,-0.0169808,VALID,21.127,VALID,51,VALID,0.000887784,
2007-06-01, 02:21:00,VALID,917.058,VALID,0,VALID,100,VALID,0.0169808,VALID,21.1275,VALID,51,VALID,0.146205,
2007-06-01, 02:22:00,VALID,917.041,VALID,0,VALID,100,VALID,0,VALID,21.1077,VALID,51,VALID,0,
2007-06-01, 02:23:00,VALID,917.018,VALID,0,VALID,100,VALID,0,VALID,21.0883,VALID,51,VALID,0,
2007-06-01, 02:24:00,VALID,917.013,VALID,0,VALID,100,VALID,0,VALID,21.1045,VALID,51,VALID,0.141135,
2007-06-01, 02:25:00,VALID,917.006,VALID,0,VALID,100,VALID,0,VALID,21.1013,VALID,51,VALID,0.258929,
2007-06-01, 02:26:00,VALID,916.985,VALID,0,VALID,100,VALID,0,VALID,21.121,VALID,51,VALID,0.00218023,
2007-06-01, 02:27:00,VALID,916.98,VALID,0,VALID,100,VALID,0,VALID,21.111,VALID,51,VALID,0,
2007-06-01, 02:28:00,VALID,916.966,VALID,0,VALID,100,VALID,0,VALID,21.111,VALID,51,VALID,0.0238009,
2007-06-01, 02:29:00,VALID,916.954,VALID,0,VALID,100,VALID,0,VALID,21.1077,VALID,51,VALID,0.0773983,
2007-06-01, 02:30:00,VALID,916.926,VALID,0,VALID,100,VALID,0.0169808,VALID,21.1077,VALID,50,VALID,0.140997,
2007-06-01, 02:31:00,VALID,916.917,VALID,0,VALID,100,VALID,0,VALID,21.088,VALID,50,VALID,0.0109012,
2007-06-01, 02:32:00,VALID,916.895,VALID,0,VALID,100,VALID,0.0169808,VALID,21.0818,VALID,50,VALID,0.00109012,
2007-06-01, 02:33:00,VALID,916.865,VALID,0,VALID,100,VALID,0,VALID,21.075,VALID,50,VALID,0.00218023,
2007-06-01, 02:34:00,VALID,916.867,VALID,0,VALID,100,VALID,0,VALID,21.0818,VALID,50,VALID,0.00138889,
2007-06-01, 02:35:00,VALID,916.863,VALID,0,VALID,100,VALID,-0.0169808,VALID,21.0655,VALID,50,VALID,0,
2007-06-01, 02:36:00,VALID,916.864,VALID,0,VALID,100,VALID,-0.0169808,VALID,21.0588,VALID,22,VALID,0.321243,
2007-06-01, 02:37:01,VALID,916.858,VALID,0,VALID,100,VALID,0,VALID,21.0396,VALID,241,VALID,0.834872,
2007-06-01, 02:38:00,VALID,916.853,VALID,0,VALID,100,VALID,0,VALID,21.0139,VALID,241,VALID,0.635231,
2007-06-01, 02:39:00,VALID,916.858,VALID,0,VALID,100,VALID,-0.0169808,VALID,21.0041,VALID,313,VALID,0.523065,
2007-06-01, 02:40:00,VALID,916.854,VALID,0,VALID,100,VALID,0,VALID,21.0206,VALID,49,VALID,0.771129,
2007-06-01, 02:41:00,VALID,916.845,VALID,0,VALID,100,VALID,-0.0169808,VALID,21.0204,VALID,39,VALID,0.672433,
2007-06-01, 02:42:00,VALID,916.851,VALID,0,VALID,100,VALID,0,VALID,21.0201,VALID,60,VALID,0.251524,
2007-06-01, 02:43:00,VALID,916.851,VALID,0,VALID,100,VALID,0,VALID,21.0104,VALID,314,VALID,0.599185,
2007-06-01, 02:44:00,VALID,916.858,VALID,0,VALID,100,VALID,0,VALID,20.9971,VALID,344,VALID,0.642671,
2007-06-01, 02:45:01,VALID,916.854,VALID,0,VALID,100,VALID,0,VALID,21.0136,VALID,34,VALID,0.865767,
2007-06-01, 02:46:01,VALID,916.869,VALID,0,VALID,100,VALID,-0.0169808,VALID,21.0234,VALID,31,VALID,0.533067,
2007-06-01, 02:47:00,VALID,916.853,VALID,0,VALID,100,VALID,0,VALID,21.0334,VALID,27,VALID,0.0797991,
2007-06-01, 02:48:00,VALID,916.849,VALID,0,VALID,100,VALID,0,VALID,21.0201,VALID,27,VALID,0.00486111,
2007-06-01, 02:49:00,VALID,916.853,VALID,0,VALID,100,VALID,-0.0169808,VALID,21.0174,VALID,27,VALID,0.252232,
2007-06-01, 02:50:00,VALID,916.856,VALID,0,VALID,100,VALID,-0.0339617,VALID,21.0071,VALID,27,VALID,0.310268,
2007-06-01, 02:51:00,VALID,916.848,VALID,0,VALID,100,VALID,-0.0169808,VALID,21.0204,VALID,27,VALID,0.588956,
2007-06-01, 02:52:00,VALID,916.839,VALID,0,VALID,100,VALID,0,VALID,21.0393,VALID,27,VALID,0.572049,
2007-06-01, 02:53:01,VALID,916.823,VALID,0,VALID,100,VALID,0,VALID,21.0458,VALID,31,VALID,0.59048,
2007-06-01, 02:54:00,VALID,916.806,VALID,0,VALID,100,VALID,0,VALID,21.0555,VALID,35,VALID,0.61101,
2007-06-01, 02:55:00,VALID,916.796,VALID,0,VALID,100,VALID,-0.0169808,VALID,21.0496,VALID,35,VALID,0.367882,
2007-06-01, 02:56:00,VALID,916.769,VALID,0,VALID,100,VALID,0,VALID,21.0591,VALID,35,VALID,0.203125,
2007-06-01, 02:57:01,VALID,916.765,VALID,0,VALID,100,VALID,-0.0169808,VALID,21.0523,VALID,35,VALID,0.297247,
2007-06-01, 02:58:00,VALID,916.731,VALID,0,VALID,100,VALID,0.0169808,VALID,21.0428,VALID,35,VALID,0.0904018,
2007-06-01, 02:59:00,VALID,916.701,VALID,0,VALID,100,VALID,0,VALID,21.0363,VALID,35,VALID,0.55785,
2007-06-01, 03:00:00,VALID,916.687,VALID,0,VALID,100,VALID,-0.0169808,VALID,21.0328,VALID,35,VALID,0.608817,
2007-06-01, 03:01:00,VALID,916.676,VALID,0,VALID,100,VALID,0.0169808,VALID,21.0493,VALID,34,VALID,0.570131,
2007-06-01, 03:02:00,VALID,916.654,VALID,0,VALID,100,VALID,-0.0169808,VALID,21.0526,VALID,9,VALID,0.521151,
2007-06-01, 03:03:00,VALID,916.643,VALID,0,VALID,100,VALID,-0.0339617,VALID,21.0496,VALID,9,VALID,0.280488,
2007-06-01, 03:04:01,VALID,916.622,VALID,0,VALID,100,VALID,-0.0169808,VALID,21.0593,VALID,9,VALID,0.196057,
2007-06-01, 03:05:00,VALID,916.598,VALID,0,VALID,100,VALID,0,VALID,21.072,VALID,9,VALID,0.379278,
2007-06-01, 03:06:00,VALID,916.592,VALID,0,VALID,100,VALID,0.0169808,VALID,21.0945,VALID,15,VALID,0.489347,
2007-06-01, 03:07:00,VALID,916.567,VALID,0,VALID,100,VALID,0,VALID,21.085,VALID,34,VALID,0.816778,
2007-06-01, 03:08:00,VALID,916.548,VALID,0,VALID,100,VALID,0,VALID,21.0785,VALID,34,VALID,0.775436,
2007-06-01, 03:09:01,VALID,916.524,VALID,0,VALID,100,VALID,0,VALID,21.0688,VALID,34,VALID,1.04154,
2007-06-01, 03:10:00,VALID,916.523,VALID,0,VALID,100,VALID,0,VALID,21.0688,VALID,21,VALID,1.18005,
2007-06-01, 03:11:01,VALID,916.502,VALID,0,VALID,100,VALID,0.0169808,VALID,21.0455,VALID,34,VALID,1.05562,
2007-06-01, 03:12:00,VALID,916.469,VALID,0,VALID,100,VALID,0,VALID,21.0461,VALID,36,VALID,1.58259,
2007-06-01, 03:13:00,VALID,916.458,VALID,0,VALID,100,VALID,0.0339617,VALID,21.0331,VALID,29,VALID,0.981001,
2007-06-01, 03:14:00,VALID,916.46,VALID,0,VALID,100,VALID,0,VALID,21.0331,VALID,37,VALID,1.01181,
2007-06-01, 03:15:00,VALID,916.454,VALID,0,VALID,100,VALID,0,VALID,21.0363,VALID,43,VALID,0.893415,
2007-06-01, 03:16:00,VALID,916.468,VALID,0,VALID,100,VALID,0,VALID,21.0428,VALID,33,VALID,0.717578,
2007-06-01, 03:17:00,VALID,916.469,VALID,0,VALID,100,VALID,0,VALID,21.0396,VALID,8,VALID,0.628551,
2007-06-01, 03:18:01,VALID,916.477,VALID,0,VALID,100,VALID,-0.0169808,VALID,21.0201,VALID,15,VALID,0.589571,
2007-06-01, 03:19:00,VALID,916.476,VALID,0,VALID,100,VALID,0,VALID,21.0104,VALID,28,VALID,1.17797,
2007-06-01, 03:20:00,VALID,916.488,VALID,0,VALID,100,VALID,0.0169808,VALID,21.0006,VALID,38,VALID,0.873512,
2007-06-01, 03:21:01,VALID,916.475,VALID,0,VALID,100,VALID,0,VALID,21.0104,VALID,5,VALID,0.608373,
2007-06-01, 03:22:01,VALID,916.472,VALID,0,VALID,100,VALID,0.0169808,VALID,21.0104,VALID,360,VALID,0.11859,
2007-06-01, 03:23:00,VALID,916.465,VALID,0,VALID,100,VALID,0,VALID,21.0236,VALID,360,VALID,0.181734,
2007-06-01, 03:24:01,VALID,916.458,VALID,0,VALID,100,VALID,0,VALID,21.0131,VALID,360,VALID,0,
2007-06-01, 03:25:01,VALID,916.444,VALID,0,VALID,100,VALID,0.0339617,VALID,21.0031,VALID,360,VALID,0.0212573,
2007-06-01, 03:26:00,VALID,916.408,VALID,0,VALID,100,VALID,0,VALID,21.0201,VALID,1,VALID,0.0279797,
2007-06-01, 03:27:01,VALID,916.401,VALID,0,VALID,100,VALID,0.0339617,VALID,21.0004,VALID,48,VALID,0.420312,
2007-06-01, 03:28:00,VALID,916.375,VALID,0,VALID,100,VALID,0.0169808,VALID,21.0004,VALID,358,VALID,0.260901,
2007-06-01, 03:29:01,VALID,916.372,VALID,0,VALID,100,VALID,-0.0509425,VALID,21.0109,VALID,338,VALID,0.117188,
2007-06-01, 03:30:01,VALID,916.368,VALID,0,VALID,100,VALID,-0.118866,VALID,21.0247,VALID,338,VALID,0.00817587,
2007-06-01, 03:31:00,VALID,916.363,VALID,0,VALID,100,VALID,-0.118866,VALID,21.0409,VALID,338,VALID,0.000190549,
2007-06-01, 03:32:01,VALID,916.36,VALID,0,VALID,100,VALID,-0.0849042,VALID,21.0347,VALID,338,VALID,0.000868056,
2007-06-01, 03:33:01,VALID,916.341,VALID,0,VALID,100,VALID,-0.101885,VALID,21.0374,VALID,338,VALID,0,
2007-06-01, 03:34:01,VALID,916.33,VALID,0,VALID,100,VALID,-0.118866,VALID,21.0447,VALID,347,VALID,0.143359,
2007-06-01, 03:35:01,VALID,916.337,VALID,0,VALID,100,VALID,-0.101885,VALID,21.0479,VALID,17,VALID,0.533507,
2007-06-01, 03:36:01,VALID,916.32,VALID,0,VALID,100,VALID,-0.101885,VALID,21.0477,VALID,17,VALID,0.378125,
2007-06-01, 03:37:01,VALID,916.32,VALID,0,VALID,100,VALID,-0.135847,VALID,21.0442,VALID,17,VALID,0.015625,
2007-06-01, 03:38:00,VALID,916.316,VALID,0,VALID,100,VALID,-0.169808,VALID,21.0409,VALID,17,VALID,0.270389,
2007-06-01, 03:39:00,VALID,916.32,VALID,0,VALID,100,VALID,-0.101885,VALID,21.0412,VALID,17,VALID,0.264535,
2007-06-01, 03:40:00,VALID,916.329,VALID,0,VALID,100,VALID,-0.101885,VALID,21.0474,VALID,17,VALID,0.015067,
2007-06-01, 03:41:00,VALID,916.314,VALID,0,VALID,100,VALID,-0.101885,VALID,21.0574,VALID,17,VALID,0,
2007-06-01, 03:42:00,VALID,916.33,VALID,0,VALID,100,VALID,-0.135847,VALID,21.0534,VALID,17,VALID,0,
2007-06-01, 03:43:00,VALID,916.335,VALID,0,VALID,100,VALID,-0.118866,VALID,21.0409,VALID,17,VALID,0.0012429,
2007-06-01, 03:44:00,VALID,916.339,VALID,0,VALID,100,VALID,-0.0849042,VALID,21.0369,VALID,17,VALID,0,